Wind_Speed
34 33 32 31 31 32 32 32 33 32 33 33 32 32 32 31 31 30 30 30 30 30 30 31 31 32 32 32 32 33 34 34 35 36 36 36 36 37 38 39 40 40 41
35 34 33 33 32 33 33 34 34 34 34 34 34 34 33 33 33 32 32 32 31 31 32 32 32 33 33 33 34 35 35 36 36 37 37 37 38 39 39 40 41 42 42
37 37 36 35 34 33 34 35 35 35 35 35 35 35 35 34 34 34 34 34 33 33 33 33 33 34 34 35 35 36 36 36 37 37 37 38 39 40 40 41 42 43 44
38 38 38 37 36 35 35 36 36 36 37 37 37 36 36 35 35 35 35 35 35 35 35 35 35 35 36 36 36 36 36 37 38 38 39 39 40 41 41 42 43 45 46
40 39 40 39 38 38 38 38 38 37 38 38 38 37 37 37 36 36 36 37 37 37 36 36 36 36 36 36 36 36 37 39 39 39 40 41 42 42 43 44 45 46 47
41 40 39 40 40 40 40 40 40 40 39 39 39 38 38 38 38 38 38 38 38 38 37 37 37 37 36 36 37 38 39 40 40 40 42 43 43 44 44 45 46 48 48
41 41 41 41 41 40 40 41 41 41 41 40 40 39 39 39 39 39 39 39 38 39 38 37 37 36 37 37 38 39 41 41 42 43 43 43 44 45 46 47 48 49 49
42 42 41 41 41 41 40 41 41 41 41 41 40 40 40 40 40 40 40 40 39 40 39 38 38 37 38 39 39 40 41 42 43 43 43 44 45 46 47 48 49 50 51
43 42 42 41 41 41 40 41 41 41 40 40 40 40 40 41 40 40 40 40 40 40 40 39 39 39 39 39 41 41 42 42 42 43 43 45 45 46 47 49 50 50 50
44 42 41 40 40 40 41 40 40 40 40 40 40 40 41 41 40 40 40 41 40 39 39 40 39 40 40 41 42 42 41 42 43 44 44 45 46 47 48 49 50 49 48
45 44 43 40 40 40 39 39 40 40 40 40 40 41 41 40 40 41 41 41 40 39 39 39 39 40 41 41 42 42 42 42 43 44 44 46 47 48 48 49 49 49 48
46 44 42 42 41 41 40 40 41 41 40 41 41 41 41 41 41 41 40 40 40 39 40 40 40 41 41 41 41 42 43 43 44 45 45 46 47 48 48 48 49 49 48
44 43 43 42 42 41 40 40 41 41 41 42 43 42 42 41 40 41 41 40 40 40 40 40 40 40 40 41 41 42 43 43 44 45 45 46 47 47 47 48 48 47 47
42 43 43 43 42 41 41 41 41 41 42 42 43 43 42 42 41 41 41 41 41 41 40 39 39 40 40 41 41 42 41 42 43 44 45 46 47 46 47 47 47 46 46
41 43 43 43 42 42 42 41 40 41 42 43 43 43 43 42 41 41 41 41 41 41 40 39 39 39 40 40 41 42 42 43 43 44 45 46 46 46 46 46 46 46 45
40 40 41 41 41 41 41 40 40 40 40 41 42 43 43 42 41 41 41 41 40 40 39 38 39 39 40 40 41 41 42 43 44 44 45 45 45 45 45 45 45 44 43
39 39 39 39 39 39 39 39 39 40 40 40 39 41 41 41 41 41 40 40 40 40 39 39 40 41 40 40 41 41 42 42 43 44 44 44 44 43 43 43 42 42 42
39 39 39 38 38 38 39 40 40 40 39 39 38 39 40 40 40 40 40 40 39 40 40 40 40 41 41 41 41 42 42 42 43 43 44 44 43 42 41 41 41 41 40
37 37 38 38 38 37 37 38 38 38 38 38 39 38 38 38 38 38 39 38 38 39 40 40 40 40 41 41 42 42 42 42 43 43 43 42 40 39 39 39 39 39 39
34 34 35 36 36 35 35 36 36 37 36 37 37 37 38 38 37 36 37 36 37 38 38 38 39 39 39 40 40 41 41 41 42 42 42 40 39 39 38 38 38 38 38
33 33 35 35 35 35 36 36 37 36 35 35 35 36 37 37 37 36 35 36 36 36 37 37 37 37 37 37 38 39 39 40 41 40 39 39 39 38 37 37 37 37 37
34 33 34 34 34 35 35 35 35 36 35 35 35 36 36 36 35 35 35 35 36 35 35 36 36 36 36 36 36 37 37 37 37 37 36 36 37 37 37 37 36 35 34
34 34 34 34 36 36 36 35 36 35 35 35 35 35 35 35 35 35 35 35 35 34 35 35 35 36 36 36 35 35 35 35 34 34 34 34 35 35 35 34 33 32 33
33 34 34 34 34 34 35 36 36 36 36 36 35 35 35 34 34 34 35 35 34 34 34 35 35 36 35 35 34 33 32 32 32 33 33 32 33 33 33 32 32 32 31
33 33 34 33 34 35 35 36 36 36 35 35 35 34 33 32 33 33 34 34 33 34 34 34 33 32 33 33 32 32 31 31 31 31 31 31 31 31 30 30 30 30 29
31 32 32 33 33 34 35 36 35 35 35 35 34 33 33 32 32 32 32 32 33 33 32 31 31 31 31 31 31 30 30 30 30 30 31 31 30 29 28 28 28 28 28
Wind_Direction
254 256 258 260 261 262 262 263 263 263 264 266 267 269 271 273 275 275 278 281 283 285 288 290 291 291 291 292 293 295 295 296 296 296 297 297 298 298 298 298 299 299 298
253 255 257 261 262 263 264 264 263 264 264 266 267 269 270 272 274 275 276 279 282 285 287 288 290 291 291 291 292 293 294 296 296 296 297 297 298 298 298 299 299 299 298
252 254 256 259 261 263 265 265 265 265 265 266 267 268 269 271 273 275 277 278 281 284 286 288 289 290 290 290 291 292 293 295 296 296 297 298 298 298 299 299 299 299 298
253 255 256 259 262 262 264 266 266 267 267 267 267 268 269 270 271 274 276 278 280 283 285 286 288 289 289 289 290 291 292 294 296 296 296 297 298 299 299 299 299 299 298
253 255 257 258 261 263 264 266 267 268 268 268 267 267 268 269 270 273 275 278 280 281 283 284 285 287 288 288 289 290 292 293 295 296 296 297 298 299 299 300 300 299 298
253 255 259 260 261 262 263 265 267 268 268 268 268 267 267 268 270 272 274 277 278 280 282 283 283 286 287 288 289 290 291 292 294 295 296 298 298 299 299 300 300 299 298
253 255 259 262 261 263 264 265 267 268 268 268 267 266 267 268 270 272 273 276 278 280 281 282 282 283 286 287 289 291 292 293 294 294 296 298 298 299 300 300 299 299 298
255 256 258 261 263 265 265 266 267 268 268 267 266 266 267 268 270 272 273 275 277 279 280 280 281 282 285 287 289 291 293 294 295 296 297 298 299 299 300 300 300 299 298
256 257 259 261 264 265 266 267 268 268 267 267 267 267 268 269 271 272 274 275 277 278 279 279 281 282 284 286 289 292 294 295 296 296 297 298 299 300 300 300 300 300 300
255 256 258 260 262 263 264 265 266 268 268 268 268 269 270 271 271 272 274 275 276 276 278 279 281 282 284 286 290 292 295 295 296 296 297 298 299 300 300 300 301 301 300
254 256 256 258 260 262 264 265 266 267 268 268 268 269 270 270 271 273 274 275 275 276 278 280 282 283 284 287 289 292 294 295 295 296 297 298 299 300 299 301 301 301 300
254 254 255 257 260 262 265 266 267 267 268 268 267 268 269 270 271 271 273 274 275 276 277 280 282 283 285 286 289 291 293 294 294 296 297 298 299 299 300 301 302 301 300
253 252 254 256 259 263 266 268 267 269 269 268 267 268 267 269 270 270 271 272 274 276 278 281 282 284 286 287 288 290 293 293 294 296 297 298 299 300 300 302 302 301 301
255 255 255 257 260 264 267 270 270 270 270 268 267 267 267 268 268 269 270 272 275 276 278 280 282 284 285 287 288 291 293 294 296 297 298 299 301 301 302 302 302 302 302
257 256 257 258 260 264 268 270 272 271 270 268 267 267 267 267 269 269 269 272 275 277 278 279 280 283 284 287 288 291 293 295 297 298 299 300 301 303 303 303 303 303 303
258 258 259 260 262 265 268 270 270 271 270 268 268 268 267 268 269 269 270 272 274 275 277 277 279 282 284 287 289 290 292 294 296 298 299 300 301 303 303 304 303 303 303
257 259 259 261 263 265 268 269 269 271 270 269 269 269 269 269 269 270 270 272 273 274 276 278 279 281 284 286 288 290 292 294 295 297 298 299 301 302 303 304 303 302 303
258 258 258 261 264 266 267 270 271 271 271 271 270 270 270 269 270 269 270 272 272 273 276 277 279 281 283 285 286 289 292 293 295 297 298 299 300 302 303 303 304 304 303
257 258 259 261 264 266 269 271 272 273 273 273 272 270 269 269 269 269 270 271 272 273 275 278 279 281 282 284 286 289 291 293 295 296 297 299 300 301 303 304 305 306 305
256 259 260 263 265 268 270 273 273 273 273 272 272 270 268 269 270 271 271 272 272 274 276 278 279 280 282 283 285 288 291 292 294 296 296 297 299 300 302 304 306 307 308
256 259 261 264 266 268 271 274 274 273 273 272 273 272 270 271 271 269 270 272 274 274 276 277 279 281 282 284 286 288 290 292 294 295 296 298 300 301 303 305 306 308 310
256 259 262 266 269 270 271 274 275 275 275 274 274 273 271 273 272 271 272 273 275 276 276 277 279 281 284 285 286 289 290 291 292 294 296 299 301 302 304 306 307 308 311
258 260 262 265 269 271 272 274 274 275 275 275 275 274 273 274 272 272 272 273 274 274 276 278 279 281 283 285 287 289 291 293 294 295 297 300 301 303 306 307 307 308 310
258 261 261 264 267 269 272 274 274 274 273 273 273 273 273 271 272 272 272 272 272 273 275 277 279 281 283 284 287 289 291 294 296 297 298 299 301 304 306 307 308 309 310
258 261 261 263 266 268 269 272 273 272 273 272 272 272 271 272 272 272 272 273 272 273 274 276 279 281 283 285 287 288 289 293 295 297 297 299 301 304 306 308 309 310 311
258 261 262 265 267 268 269 272 273 273 272 271 271 271 271 272 271 272 273 273 274 276 276 277 280 282 284 285 287 288 288 290 293 295 296 299 301 303 305 307 309 309 310
Height
5800 5801 5802 5802 5803 5804 5805 5805 5806 5806 5807 5808 5808 5808 5808 5808 5808 5808 5807 5807 5806 5805 5804 5802 5801 5799 5797 5795 5793 5791 5789 5786 5783 5780 5777 5774 5771 5767 5764 5760 5756 5752 5748
5792 5793 5795 5795 5796 5796 5797 5797 5798 5798 5799 5800 5800 5801 5801 5801 5800 5800 5800 5800 5799 5798 5797 5796 5794 5792 5790 5788 5786 5784 5781 5779 5776 5773 5770 5766 5763 5759 5755 5751 5747 5743 5738
5783 5785 5787 5788 5788 5788 5789 5789 5789 5790 5791 5791 5792 5792 5793 5793 5793 5793 5793 5792 5792 5791 5790 5788 5787 5785 5783 5781 5779 5776 5774 5771 5768 5765 5762 5758 5754 5750 5746 5742 5738 5733 5729
5774 5777 5779 5779 5780 5781 5781 5781 5781 5782 5782 5782 5783 5784 5784 5785 5785 5785 5785 5784 5784 5783 5782 5781 5779 5777 5775 5773 5771 5769 5766 5763 5760 5757 5753 5750 5746 5741 5737 5733 5728 5724 5719
5766 5768 5769 5771 5771 5772 5772 5773 5773 5773 5773 5774 5774 5775 5776 5776 5777 5777 5777 5776 5776 5775 5774 5773 5771 5769 5767 5765 5763 5761 5758 5755 5752 5748 5745 5741 5736 5732 5728 5723 5718 5714 5709
5757 5759 5760 5761 5762 5763 5764 5763 5764 5764 5764 5764 5765 5766 5767 5767 5768 5768 5768 5768 5767 5766 5765 5764 5763 5761 5759 5757 5755 5752 5749 5746 5743 5739 5735 5731 5727 5722 5718 5713 5708 5703 5698
5748 5750 5751 5752 5753 5754 5754 5754 5754 5755 5755 5755 5756 5757 5758 5758 5759 5759 5759 5758 5758 5757 5756 5755 5754 5752 5751 5748 5746 5743 5740 5737 5733 5730 5726 5721 5717 5712 5708 5703 5698 5692 5687
5739 5741 5742 5743 5744 5744 5744 5744 5745 5745 5745 5746 5747 5747 5749 5750 5749 5749 5749 5749 5749 5748 5747 5746 5745 5743 5742 5739 5737 5734 5731 5727 5724 5720 5716 5711 5707 5702 5697 5692 5686 5681 5675
5730 5732 5733 5734 5734 5735 5735 5736 5736 5736 5737 5737 5737 5739 5740 5740 5741 5741 5740 5740 5739 5739 5738 5737 5736 5734 5732 5730 5728 5725 5721 5718 5714 5710 5706 5701 5697 5691 5686 5681 5675 5670 5664
5721 5722 5724 5724 5725 5725 5726 5726 5727 5727 5728 5728 5729 5729 5730 5731 5731 5732 5732 5731 5730 5729 5728 5728 5726 5724 5723 5720 5718 5715 5712 5708 5704 5700 5696 5691 5686 5681 5676 5670 5664 5658 5652
5711 5713 5714 5715 5715 5716 5717 5717 5718 5718 5719 5720 5720 5720 5721 5721 5721 5722 5722 5722 5721 5721 5719 5718 5717 5715 5713 5711 5708 5705 5702 5698 5694 5690 5686 5681 5676 5670 5665 5659 5653 5647 5641
5701 5703 5704 5706 5706 5707 5708 5709 5709 5709 5710 5710 5711 5711 5711 5711 5711 5711 5712 5712 5712 5711 5710 5709 5707 5705 5703 5701 5698 5695 5692 5688 5684 5680 5675 5670 5665 5660 5654 5648 5643 5636 5630
5692 5693 5694 5696 5697 5698 5699 5699 5700 5700 5700 5700 5701 5701 5701 5702 5702 5702 5702 5701 5701 5702 5701 5699 5697 5695 5693 5691 5688 5685 5682 5678 5674 5669 5665 5660 5654 5649 5643 5638 5632 5625 5619
5682 5683 5685 5686 5688 5689 5690 5690 5691 5691 5690 5690 5691 5691 5691 5692 5692 5692 5692 5692 5691 5691 5691 5689 5687 5685 5683 5680 5678 5675 5671 5667 5663 5659 5654 5649 5644 5638 5633 5627 5621 5614 5608
5672 5673 5675 5677 5678 5680 5680 5681 5681 5681 5681 5681 5680 5681 5681 5682 5682 5682 5681 5681 5681 5681 5681 5679 5677 5675 5673 5670 5668 5665 5661 5657 5653 5648 5644 5639 5633 5628 5622 5616 5610 5604 5598
5662 5664 5666 5667 5669 5670 5671 5672 5672 5671 5671 5671 5671 5671 5671 5672 5672 5671 5671 5671 5670 5670 5670 5669 5667 5665 5663 5660 5657 5654 5651 5647 5642 5638 5633 5628 5623 5617 5611 5605 5599 5593 5587
5653 5654 5656 5658 5660 5661 5662 5662 5662 5662 5662 5661 5661 5661 5661 5661 5661 5661 5661 5661 5660 5660 5659 5658 5657 5655 5653 5650 5647 5644 5640 5636 5632 5627 5623 5618 5613 5607 5601 5595 5589 5583 5577
5644 5646 5647 5649 5650 5652 5652 5652 5652 5652 5652 5652 5651 5651 5651 5651 5651 5651 5651 5651 5650 5649 5649 5648 5647 5645 5643 5640 5637 5634 5630 5626 5621 5617 5612 5607 5602 5597 5591 5586 5580 5574 5568
5635 5636 5638 5640 5641 5642 5643 5643 5643 5642 5642 5642 5641 5641 5641 5641 5641 5641 5641 5641 5640 5639 5638 5638 5636 5634 5632 5630 5627 5623 5620 5616 5611 5607 5602 5597 5592 5587 5582 5577 5571 5565 5559
5625 5627 5629 5630 5632 5632 5633 5633 5633 5633 5633 5632 5631 5631 5631 5632 5632 5631 5631 5631 5630 5630 5629 5627 5626 5624 5622 5619 5616 5613 5610 5606 5602 5597 5592 5587 5582 5577 5573 5568 5562 5557 5551
5616 5618 5620 5622 5622 5623 5624 5624 5624 5624 5623 5623 5622 5622 5622 5622 5622 5622 5621 5621 5620 5620 5619 5617 5616 5614 5611 5609 5606 5603 5600 5596 5592 5587 5583 5578 5573 5569 5564 5558 5553 5548 5542
5607 5609 5611 5613 5613 5614 5615 5615 5615 5615 5614 5613 5613 5613 5612 5613 5612 5612 5611 5611 5611 5610 5609 5607 5606 5604 5602 5599 5597 5594 5590 5587 5584 5580 5574 5569 5564 5560 5555 5550 5545 5540 5535
5599 5601 5602 5604 5605 5605 5606 5606 5606 5605 5605 5604 5604 5604 5604 5603 5602 5602 5602 5601 5601 5600 5599 5598 5596 5594 5592 5591 5588 5585 5581 5577 5574 5570 5566 5562 5557 5552 5547 5542 5537 5533 5528
5590 5592 5593 5595 5596 5596 5597 5597 5596 5596 5595 5595 5595 5595 5595 5594 5593 5593 5592 5592 5591 5590 5589 5588 5587 5585 5583 5581 5579 5576 5573 5569 5565 5561 5558 5555 5550 5545 5540 5535 5530 5526 5521
5582 5583 5584 5585 5586 5587 5587 5587 5587 5586 5586 5586 5586 5585 5585 5585 5584 5583 5583 5582 5581 5581 5579 5578 5577 5575 5573 5571 5569 5566 5564 5561 5558 5555 5551 5548 5544 5539 5534 5529 5524 5519 5514
5573 5574 5575 5576 5577 5577 5577 5577 5577 5577 5577 5577 5577 5576 5576 5575 5575 5574 5573 5573 5572 5571 5570 5569 5567 5566 5564 5562 5560 5558 5555 5553 5550 5548 5544 5540 5536 5532 5529 5524 5518 5513 5509